Dewpoint
75 75 74 74 74 74 75 75 75 75 75 75 75 74 74 74 73 73 74 74 73 73 74 74 74 73 73 73 73 74 74 74 74 74 74 74 75 76 77 76 76 75 75 74 74 74 73 73 72 72 71 72 72 72 72 72 72 72 72 72 72 72 72 72 71 71 71 71 71 70 71 71 71 71 71 71 71 71 70 71 71 70 70 70 71
74 75 74 74 74 74 74 74 74 75 75 75 75 74 74 73 73 74 73 73 72 73 74 74 73 73 73 73 73 73 74 74 74 74 74 74 75 76 76 76 76 76 75 74 74 74 74 73 73 73 73 72 73 72 71 72 72 72 72 72 72 72 72 72 72 72 71 71 71 72 72 71 71 72 71 71 71 71 70 70 71 71 71 71 71
74 74 74 74 74 74 74 74 74 74 75 75 75 75 74 74 74 73 73 73 73 73 74 73 73 72 72 73 72 73 73 74 73 74 74 75 75 76 77 75 75 75 75 75 74 74 74 74 73 73 73 72 73 73 72 72 73 73 73 73 72 72 72 72 72 72 72 72 71 71 72 72 72 72 72 72 71 71 71 70 70 70 71 71 71
75 74 74 74 74 74 74 74 74 74 74 74 74 75 75 74 75 75 74 74 74 74 73 72 72 70 70 71 71 72 72 73 72 73 74 75 75 75 77 76 74 75 75 75 75 74 74 74 73 74 74 73 72 72 72 72 73 73 73 73 73 73 72 72 72 72 72 72 72 73 73 73 72 72 72 72 72 72 72 71 71 71 71 71 72
75 74 75 74 74 74 73 74 74 74 74 74 74 74 75 74 74 75 74 74 73 72 71 68 67 67 68 68 70 71 72 73 73 73 74 74 75 75 76 76 75 74 75 75 74 75 74 74 74 74 74 74 73 72 71 72 73 72 73 73 73 73 73 73 73 72 72 72 72 72 73 73 73 73 73 73 72 72 72 72 72 72 71 72 72
75 74 74 74 74 73 73 73 74 74 74 75 74 74 74 74 74 74 75 72 71 69 68 68 67 67 68 70 70 71 71 72 72 73 74 74 74 75 75 76 77 77 76 75 75 75 75 74 74 73 74 74 74 73 73 73 73 73 73 72 73 73 73 72 72 73 73 73 73 72 71 72 72 72 72 73 72 72 72 72 72 72 72 72 72
75 74 73 73 73 73 73 73 74 74 74 74 74 74 74 74 74 74 73 68 67 71 69 68 68 68 68 71 71 72 71 71 72 72 73 74 74 74 74 75 76 76 77 76 75 75 75 74 74 73 73 73 74 73 73 72 73 73 73 73 73 72 73 72 72 72 72 73 72 73 72 72 71 72 72 72 72 72 72 73 73 72 73 72 72
75 74 73 73 73 73 73 74 74 74 74 74 74 74 74 74 74 73 72 65 69 68 69 69 69 68 69 71 71 73 71 71 71 72 73 74 74 74 74 75 76 76 75 76 76 75 75 75 74 74 73 74 73 73 73 73 73 72 73 72 72 72 72 73 72 73 73 73 73 73 72 71 71 71 72 72 72 71 71 71 72 72 72 72 72
75 74 73 73 74 74 74 74 74 74 74 74 74 75 74 74 73 73 70 66 67 67 68 69 69 68 69 70 70 73 71 71 71 71 73 74 74 74 74 74 75 75 76 76 76 76 75 75 75 73 73 74 74 74 73 73 73 72 73 72 71 72 72 71 72 72 72 72 73 73 73 73 72 72 71 72 72 72 71 71 71 71 72 72 72
75 74 74 74 74 74 74 74 74 74 74 73 74 74 74 74 73 69 67 67 67 67 67 68 69 68 69 69 71 70 71 71 72 73 72 72 74 74 74 74 75 75 76 76 76 76 76 75 75 74 74 74 74 73 74 73 73 73 72 73 73 73 72 72 72 72 72 73 73 73 72 72 72 72 72 72 72 72 72 71 71 71 72 72 71
75 74 74 74 74 74 74 74 74 74 73 73 73 73 74 73 73 70 69 66 67 68 68 68 68 68 70 70 70 71 70 72 73 71 71 71 72 74 74 74 74 75 76 75 75 75 76 76 76 76 75 74 74 74 73 73 73 73 73 73 73 73 72 72 73 72 71 71 72 71 72 72 72 71 71 72 72 72 72 71 71 71 72 72 72
74 74 74 74 74 74 74 74 74 74 73 73 72 73 73 72 71 68 66 68 71 69 69 70 68 66 68 69 70 70 71 73 70 70 72 71 73 74 73 74 75 75 75 75 75 74 75 75 75 75 75 75 74 74 73 72 73 73 73 73 72 72 72 72 72 72 71 71 72 71 72 71 72 71 71 71 72 72 71 71 71 72 72 71 71
75 75 74 75 74 74 74 74 74 74 73 73 73 72 72 71 69 70 66 66 66 68 69 68 66 66 66 66 68 69 75 71 70 70 70 70 73 73 73 73 73 75 74 75 74 74 74 75 75 75 75 75 75 74 73 73 74 73 73 72 73 72 71 72 71 71 72 72 72 71 71 71 71 71 71 71 71 71 70 71 71 72 71 72 71
75 75 75 74 74 74 74 74 74 74 73 73 72 72 72 68 68 68 68 66 66 68 69 67 65 64 64 65 69 67 70 68 67 68 68 70 70 71 72 71 71 73 74 74 74 74 74 74 74 74 74 74 74 74 75 74 74 73 73 73 73 73 73 73 72 72 72 72 72 72 71 71 72 71 70 70 71 70 70 70 71 71 70 71 71
75 75 75 75 75 74 74 74 74 74 73 72 72 70 69 67 67 66 66 67 69 70 69 67 65 66 64 66 64 64 66 67 65 66 67 69 69 69 71 69 70 72 73 73 73 73 73 73 73 73 74 74 74 74 74 73 73 73 73 73 73 72 72 72 72 72 72 72 72 72 72 72 72 72 72 71 71 71 71 71 70 70 70 71 70
74 75 75 75 75 74 74 74 74 74 73 72 71 68 68 66 66 67 67 65 64 67 70 66 66 64 62 63 62 62 61 63 65 67 65 67 67 67 70 68 69 71 73 73 73 73 73 73 73 73 73 73 73 73 73 74 74 73 73 73 73 73 72 71 71 71 71 72 72 72 72 72 72 72 72 72 72 72 72 71 71 71 70 70 70
75 75 76 75 75 75 74 74 74 73 73 72 71 68 67 66 66 67 66 66 63 65 68 67 66 67 66 63 62 61 61 62 61 65 63 65 65 66 69 66 67 70 72 72 72 72 72 72 73 72 72 72 73 73 73 73 73 74 73 72 72 72 72 72 71 70 70 70 70 70 70 70 70 69 69 69 69 69 70 71 71 71 71 71 71
75 75 75 75 75 75 74 74 73 73 73 72 71 68 67 65 66 66 66 65 65 65 65 68 70 69 66 66 66 64 63 63 61 61 65 63 66 65 64 62 67 69 71 72 72 71 72 72 72 72 72 72 72 72 72 71 73 71 70 73 72 71 71 71 69 69 68 69 68 68 68 68 68 68 68 67 67 68 68 68 68 69 69 69 69
75 75 75 76 75 75 74 74 74 73 73 71 70 68 67 66 66 65 65 68 66 65 65 65 67 67 68 67 68 68 64 63 62 62 61 64 63 63 61 62 64 68 69 70 70 70 70 71 71 72 72 72 72 72 72 71 71 71 72 72 72 70 69 69 70 68 67 65 65 66 66 66 66 67 67 67 68 67 67 67 67 67 67 68 68
75 76 76 76 76 75 74 74 73 73 73 71 70 68 68 68 67 66 66 68 65 65 65 64 65 64 69 66 67 65 64 63 63 62 63 61 62 61 61 62 63 65 67 68 69 69 68 70 70 71 71 72 72 72 72 71 71 70 71 67 68 69 68 68 68 68 65 65 65 65 64 64 64 65 66 66 66 67 66 66 66 66 66 67 67
75 75 76 76 76 75 75 74 73 73 74 72 70 68 68 68 67 66 65 66 66 66 66 65 64 64 65 64 65 63 63 64 64 64 65 62 60 60 61 59 61 63 64 65 67 67 68 68 68 71 71 72 72 71 71 71 70 70 69 67 68 68 69 69 69 68 66 66 66 65 66 65 65 64 64 64 65 66 65 65 66 65 65 65 64
75 75 76 75 75 75 75 74 73 72 73 72 70 69 68 68 67 66 66 65 66 67 66 66 65 65 65 65 64 64 63 62 62 60 61 63 61 60 60 59 60 63 63 63 66 67 66 65 67 69 71 71 71 71 71 71 70 69 68 68 67 69 69 70 70 68 67 67 67 67 65 65 66 66 66 65 65 66 66 65 65 65 64 63 64
75 75 75 75 75 75 75 74 73 73 73 72 71 69 68 68 67 67 67 65 65 66 68 67 66 66 64 65 64 63 62 62 62 62 63 61 60 59 59 58 57 60 63 62 66 64 65 66 65 64 69 70 70 70 70 70 70 70 69 69 68 70 70 69 70 69 70 69 67 66 66 66 65 65 66 66 66 66 66 65 65 65 65 64 63
75 75 75 75 75 75 75 74 74 73 72 72 71 70 69 68 67 67 66 66 66 67 66 66 65 65 64 63 64 63 62 64 62 63 62 62 60 60 60 62 61 61 64 65 65 64 62 63 65 66 66 67 69 70 69 70 69 70 70 70 68 69 70 69 70 70 69 69 69 69 69 68 66 65 64 63 63 63 64 64 64 64 63 63 64
74 74 75 75 75 75 74 74 73 73 72 72 71 70 69 68 67 66 66 66 65 66 66 65 65 64 64 64 63 63 63 63 64 62 62 62 61 60 59 60 62 61 64 63 61 63 63 63 64 64 65 66 66 68 69 69 68 68 69 69 68 68 69 69 69 69 69 68 67 68 69 67 66 67 67 67 67 65 64 64 63 63 63 63 63
73 74 74 75 75 75 75 74 74 73 72 72 71 70 69 68 67 66 65 65 65 66 66 66 65 65 65 64 63 64 64 64 64 62 61 60 61 60 62 61 60 61 63 65 64 62 61 64 63 65 65 66 65 66 67 67 67 67 68 68 67 67 68 68 68 68 68 68 67 68 68 67 67 67 67 67 67 67 67 67 67 67 66 66 65
73 74 75 75 75 75 75 74 74 73 72 71 71 70 69 68 68 66 66 65 65 66 65 65 65 64 64 64 64 65 64 65 64 63 63 61 61 62 62 60 59 59 61 61 62 61 63 66 64 63 65 66 65 65 66 66 66 67 67 68 69 67 66 66 67 68 67 67 67 67 67 68 68 68 69 68 68 67 67 67 67 67 67 67 66
74 74 74 74 74 74 75 74 74 73 72 71 71 70 69 67 67 66 65 66 65 65 65 65 64 65 64 65 65 64 65 65 64 64 63 63 63 64 63 61 60 58 60 61 61 63 62 64 65 65 65 65 66 65 65 64 65 65 67 68 69 68 67 66 66 67 67 67 66 66 66 66 67 67 68 68 67 67 68 68 68 68 68 68 68
73 74 74 74 74 74 74 74 73 73 72 71 70 70 69 68 67 66 65 66 65 65 65 65 65 64 65 65 65 65 65 66 66 65 65 65 64 64 63 61 61 61 60 59 60 59 61 60 61 64 67 68 69 68 67 67 66 66 67 67 69 69 68 66 66 66 66 67 66 66 66 66 66 66 67 67 67 67 68 68 68 68 68 68 67
73 74 74 74 74 75 74 74 73 72 72 71 70 69 69 68 67 66 66 66 66 65 66 65 65 65 66 66 65 64 66 66 65 65 65 66 65 64 64 63 63 61 60 59 60 60 62 62 61 64 66 67 68 68 67 68 67 67 68 67 67 68 66 66 66 66 66 66 66 65 66 66 66 66 66 66 66 66 67 68 68 68 68 68 68
73 74 74 73 73 74 74 73 73 72 72 71 70 69 69 68 67 66 66 66 66 65 66 66 65 66 66 66 66 65 66 66 66 66 66 66 65 64 64 63 63 63 60 60 59 63 62 63 63 63 65 67 66 67 67 67 68 68 69 68 67 67 67 68 66 66 65 65 64 64 64 64 64 64 64 64 65 66 67 67 67 67 67 67 68
73 73 73 73 73 73 73 73 72 71 71 70 70 69 69 68 67 67 66 66 66 65 65 66 65 66 66 66 66 66 66 66 66 66 66 66 65 64 64 63 63 63 63 61 60 60 62 63 64 65 65 66 68 67 68 67 67 69 69 69 68 67 68 68 67 66 65 64 64 64 63 62 63 63 64 64 65 66 67 66 66 66 66 66 67
72 72 73 73 73 73 73 73 72 71 70 70 69 69 68 68 67 67 66 66 65 65 66 66 66 66 66 65 66 66 66 66 66 65 65 65 65 65 64 64 64 63 63 62 60 61 64 63 64 65 66 67 67 67 67 67 68 68 67 69 68 68 67 68 67 66 65 64 63 63 63 62 62 63 63 64 64 65 66 67 66 65 65 65 65
72 72 72 72 72 72 72 72 72 71 70 70 68 69 68 68 67 67 66 66 65 65 66 66 66 66 66 66 65 66 66 66 65 65 65 65 65 64 65 64 64 64 64 63 63 63 63 64 64 65 65 66 66 67 67 68 68 68 67 67 67 67 67 67 66 66 65 64 63 62 62 62 62 63 63 63 64 64 64 64 64 63 64 63 63
72 72 72 72 72 72 72 72 72 71 70 69 68 68 68 68 67 67 66 66 65 65 65 65 65 66 66 66 65 65 65 65 65 65 65 65 65 65 65 65 65 64 65 65 64 63 63 64 64 65 66 66 66 68 67 67 67 67 67 67 67 67 67 67 66 66 65 64 63 63 62 62 62 62 62 63 63 62 62 62 61 62 61 61 60
71 72 72 72 72 72 71 71 71 71 70 69 68 67 67 67 67 67 66 66 65 65 65 65 65 66 65 66 65 65 66 65 65 65 65 65 66 65 65 65 65 65 65 65 65 65 64 63 64 65 66 66 66 66 66 67 66 67 67 67 67 66 66 66 66 66 65 64 63 62 62 62 61 61 61 61 61 60 59 59 59 60 59 59 59
71 71 71 71 71 71 71 71 71 71 70 69 68 67 67 67 67 66 66 66 65 65 65 65 66 65 65 65 65 65 65 65 65 65 65 65 65 65 65 65 65 65 65 65 65 65 64 64 64 64 64 65 66 66 66 66 67 67 66 66 66 66 66 65 65 65 64 63 63 63 62 62 62 62 61 61 61 60 59 59 59 59 58 58 58
71 71 71 71 71 71 71 70 70 70 70 69 69 68 66 66 66 66 66 66 65 65 65 65 65 65 65 65 65 65 65 65 65 65 65 65 65 65 65 65 65 65 65 65 66 65 65 65 65 65 65 65 66 66 66 66 66 66 66 66 66 66 66 65 64 64 65 65 64 65 63 63 63 62 61 61 60 60 60 59 59 58 58 57 56
71 70 70 71 71 71 71 70 70 70 70 69 69 68 68 67 66 66 65 65 65 65 65 65 65 65 65 65 65 65 65 64 64 65 65 65 65 65 65 65 65 65 65 65 65 65 65 65 65 64 65 64 64 65 65 65 65 65 64 65 64 66 66 65 64 65 64 65 64 63 64 63 63 63 60 59 59 60 60 60 59 58 58 57 56
71 71 70 70 70 70 70 70 70 70 69 69 68 68 68 67 66 66 65 65 65 65 65 65 65 65 65 65 65 65 64 65 64 65 65 65 65 65 65 66 65 65 65 65 64 64 64 64 64 64 64 64 64 64 64 65 65 65 65 64 63 64 65 65 64 64 65 65 64 63 63 63 62 62 60 60 61 61 60 60 61 61 60 58 57
72 71 71 70 70 70 70 70 70 69 69 68 68 68 67 67 67 66 65 65 65 65 65 65 65 65 65 65 65 64 65 66 67 66 66 65 65 65 66 66 65 65 65 65 64 64 64 63 63 63 63 63 63 64 63 63 64 64 65 64 64 64 64 63 64 64 64 64 64 63 63 63 63 63 63 63 63 61 61 61 61 61 61 57 57
72 72 72 71 70 70 70 70 70 69 69 68 66 62 63 67 67 66 66 66 65 65 65 65 65 65 65 65 65 66 66 67 68 68 66 66 65 65 65 66 66 65 65 64 64 64 64 63 63 63 62 62 63 63 63 64 64 64 63 63 62 63 63 62 63 63 64 64 63 63 63 63 62 63 63 61 61 61 61 61 60 59 59 58 58
72 72 72 71 70 70 70 69 69 69 69 68 62 61 61 62 66 67 66 66 66 65 65 65 64 64 65 65 65 67 67 68 68 68 67 66 66 65 65 65 65 65 65 64 64 64 63 63 64 63 62 63 63 63 63 63 62 62 63 63 62 62 61 61 60 62 64 64 64 62 62 63 62 60 61 60 60 60 60 60 59 60 58 58 58
72 72 72 71 71 70 70 69 69 69 69 64 61 60 61 61 62 67 66 66 66 65 65 65 65 65 64 66 65 65 66 67 66 67 68 67 64 64 64 63 63 63 63 64 65 64 64 63 63 63 63 63 63 63 62 61 62 62 62 62 62 62 61 61 60 60 62 64 62 61 60 63 61 60 60 60 60 60 59 59 58 59 58 58 57
72 72 72 72 71 71 70 70 69 69 69 64 61 60 60 60 60 63 66 66 66 66 66 66 65 66 66 65 65 65 65 67 68 67 67 67 66 64 63 63 63 62 61 61 62 65 65 65 64 64 63 63 63 63 64 63 64 63 62 61 61 61 61 61 61 61 62 63 61 59 58 59 60 58 58 60 59 60 60 59 59 59 58 58 57
72 72 72 72 71 71 70 70 70 69 69 64 60 59 59 59 60 61 66 66 66 66 66 66 66 66 65 65 65 65 65 66 67 67 66 66 67 67 66 66 66 65 62 60 60 61 63 64 65 64 65 64 63 63 64 63 63 63 62 61 62 61 61 61 62 62 62 61 59 59 57 58 59 58 57 59 59 60 61 59 58 57 57 56 54
72 72 72 72 72 71 71 70 70 69 69 63 59 58 57 57 58 60 66 67 67 67 67 66 66 66 65 65 65 66 66 66 66 66 66 66 66 67 67 66 66 66 66 64 63 63 64 64 64 63 62 63 63 63 63 64 63 65 64 63 62 62 62 60 60 60 60 61 60 58 56 57 58 57 57 58 59 59 60 57 55 54 53 52 53
72 72 72 72 72 71 71 71 70 69 69 61 58 57 57 57 58 63 66 67 67 67 67 67 67 67 67 66 66 66 66 66 66 63 65 66 66 66 67 67 67 67 66 67 64 64 66 65 65 64 63 65 63 65 65 64 64 64 63 61 61 61 61 60 59 57 57 58 59 58 57 56 59 56 56 58 56 54 54 53 52 52 52 52 53
72 72 72 72 72 72 71 71 70 70 70 63 57 56 56 56 58 64 66 67 67 67 67 67 67 67 66 66 66 66 66 65 64 60 61 66 66 65 65 66 66 65 65 65 60 60 60 59 59 60 60 59 59 58 57 58 62 63 63 61 61 59 59 58 56 56 56 56 58 58 56 55 57 57 55 54 53 51 52 53 54 52 51 51 51
72 72 72 72 72 72 71 71 71 70 70 64 56 55 55 55 59 65 66 66 66 67 67 67 67 67 67 68 67 66 66 66 61 59 60 64 65 65 65 65 64 64 64 63 62 63 58 57 58 58 59 59 58 58 57 56 57 60 62 60 59 57 57 57 56 56 56 57 58 57 56 55 55 54 52 53 52 53 52 54 55 54 53 50 50
72 72 72 72 72 72 72 71 67 69 70 65 55 55 55 55 59 66 67 66 66 67 67 67 67 67 67 68 68 66 66 64 59 58 59 64 66 66 66 65 64 64 64 64 64 63 63 63 63 63 61 59 60 61 62 56 57 60 63 62 58 58 57 57 56 56 54 55 56 59 56 54 52 53 52 49 46 50 53 52 53 55 55 55 53